Location: Newark
(44.3681°N, 100.3364°W)
Time: 08:00:24
(UTC+00:00)

Vanguard 1 - Pass Details

Date: 01 March 2020
Orbit: 649 x 3833 km, 34.2° (Epoch: 05 April)

Event Time Altitude Azimuth Distance (km) Brightness Sun altitude
Rises 17:37:41 0° 277° (W) 7,846 14.4 35.7°
Reaches altitude 10° 17:43:47 10° 272° (W) 6,574 14.1 36.1°
Maximum altitude 18:01:28 43° 211° (SSW) 3,279 13.8 37.1°
Drops below altitude 10° 18:12:08 10° 145° (SE) 4,043 14.3 37.6°
Sets 18:14:54 0° 137° (SE) 4,689 14.3 37.7°
